Weather History for Harrison, AR

Change the Weather History Date:

Saturday, October 5, 2013

  Actual Average Record
Temperature  
Mean Temperature 62 °F 62 °F  
Max Temperature 74 °F 73 °F 96 °F (1954)
Min Temperature 50 °F 51 °F 35 °F (1988)
Degree Days  
Heating Degree Days 3 5  
Month to date heating degree days 3 21  
Since 1 July heating degree days 11 64  
Cooling Degree Days 0 2  
Month to date cooling degree days 44 10  
Year to date cooling degree days 1411 1389  
Growing Degree Days 12 (Base 50)    
Moisture  
Dew Point 58 °F    
Average Humidity 89    
Maximum Humidity 100    
Minimum Humidity 77    
Precipitation  
Precipitation 2.21 in 0.11 in 2.21 in (2013)
Month to date precipitation 2.21 0.60  
Year to date precipitation 36.38 33.76  
Snow  
Snow 0.00 in 0.00 in - ()
Month to date snowfall 0.0 0.0  
Since 1 July snowfall 0.0 0.0  
Since 1 September snowfall 0.0 0.0  
Snow Depth 0.00 in    
Sea Level Pressure  
Sea Level Pressure 29.98 in    
Wind  
Wind Speed 7 mph (WNW)    
Max Wind Speed 21 mph    
Max Gust Speed 30 mph    
Visibility 7 miles    
Events Fog , Rain , Thunderstorm    
T = Trace of Precipitation, MM = Missing Value Source: NWS Daily Summary

Daily Weather History Graph

Daily Weather History Graph

Search for Another Location

Airport:

Trip Planner

Search our weather history database for the weather conditions in past years. The results will help you decide how hot, cold, wet, or windy it might be!

Date:

Astronomy

Oct. 05, 2013 Rise Set
Actual Time 7:11 AM CDT 6:50 PM CDT
Civil Twilight 6:45 AM CDT 7:15 PM CDT
Nautical Twilight 6:15 AM CDT 7:45 PM CDT
Astronomical Twilight 5:45 AM CDT 8:15 PM CDT
Moon 7:49 AM CDT (10/5) 7:12 PM CDT (10/5)
Length of Visible Light 12h 30m
Length of Day
11h 38m
New Moon, 1% of the Moon is Illuminated
Oct 5
New Moon
Oct 11
First Quarter
Oct 18
Full
Oct 26
Last Quarter
Nov 3
New

Hourly Weather History & Observations

Time (CDT) Temp. Dew Point Humidity Pressure Visibility Wind Dir Wind Speed Gust Speed Precip Events Conditions
12:51 AM 73.4 °F 68.0 °F 83% 29.96 in 10.0 mi SSE 4.6 mph - N/A   Overcast
12:53 AM 73.0 °F 68.0 °F 84% 29.91 in 10.0 mi SSE 3.5 mph - N/A   Overcast
1:53 AM 73.0 °F 68.0 °F 84% 29.94 in 10.0 mi Variable 3.5 mph - N/A   Overcast
2:15 AM 73.4 °F 68.0 °F 83% 29.98 in 10.0 mi South 3.5 mph - N/A   Overcast
2:53 AM 73.0 °F 68.0 °F 84% 29.93 in 10.0 mi SSE 10.4 mph - N/A   Mostly Cloudy
3:53 AM 73.0 °F 68.0 °F 84% 29.92 in 10.0 mi SSW 3.5 mph - N/A   Partly Cloudy
4:53 AM 71.1 °F 66.9 °F 87% 29.91 in 10.0 mi SSE 5.8 mph - N/A   Clear
5:53 AM 71.1 °F 68.0 °F 90% 29.91 in 10.0 mi SSE 5.8 mph - N/A   Clear
6:53 AM 72.0 °F 68.0 °F 87% 29.90 in 10.0 mi SE 6.9 mph - N/A   Mostly Cloudy
7:29 AM 71.6 °F 69.8 °F 94% 29.96 in 10.0 mi North 3.5 mph - N/A   Overcast
7:53 AM 73.0 °F 69.1 °F 87% 29.93 in 10.0 mi NW 5.8 mph - N/A   Overcast
8:05 AM 69.8 °F 64.4 °F 83% 29.98 in 10.0 mi North 6.9 mph - N/A   Overcast
8:18 AM 68.0 °F 62.6 °F 83% 29.99 in 10.0 mi NW 10.4 mph 17.3 mph N/A   Overcast
8:33 AM 66.2 °F 62.6 °F 88% 29.99 in 10.0 mi NNW 9.2 mph - N/A   Overcast
8:53 AM 66.9 °F 62.1 °F 84% 29.96 in 10.0 mi NNW 8.1 mph - N/A   Overcast
9:07 AM 66.2 °F 62.6 °F 88% 30.01 in 10.0 mi North 3.5 mph - N/A Thunderstorm Overcast
9:14 AM 66.2 °F 62.6 °F 88% 30.01 in 10.0 mi NNW 6.9 mph - N/A Thunderstorm Overcast
9:37 AM 64.4 °F 62.6 °F 94% 30.03 in 2.5 mi Variable 6.9 mph - 0.08 in Rain , Thunderstorm Heavy Thunderstorms and Rain
9:53 AM 64.0 °F 64.0 °F 100% 29.99 in 2.5 mi NW 3.5 mph - 0.22 in Rain , Thunderstorm Thunderstorms and Rain
10:06 AM 64.4 °F 64.4 °F 100% 30.02 in 1.0 mi Calm Calm - 0.23 in Rain , Thunderstorm Heavy Thunderstorms and Rain
10:24 AM 64.4 °F 62.6 °F 94% 30.04 in 1.5 mi Variable 3.5 mph - 0.45 in Rain , Thunderstorm Thunderstorms and Rain
10:46 AM 64.4 °F 64.4 °F 100% 30.03 in 0.8 mi West 5.8 mph - 0.93 in Rain , Thunderstorm Heavy Thunderstorms and Rain
10:53 AM 64.0 °F 64.0 °F 100% 29.99 in 0.5 mi Variable 5.8 mph - 1.06 in Fog , Rain , Thunderstorm Heavy Thunderstorms and Rain
10:59 AM 64.4 °F 64.4 °F 100% 30.00 in 1.0 mi ESE 9.2 mph 18.4 mph 0.03 in Rain , Thunderstorm Heavy Thunderstorms and Rain
11:03 AM 64.4 °F 64.4 °F 100% 30.00 in 3.0 mi ESE 8.1 mph 18.4 mph 0.04 in Rain , Thunderstorm Thunderstorms and Rain
11:11 AM 64.4 °F 64.4 °F 100% 30.00 in 9.0 mi ESE 4.6 mph - 0.04 in Rain , Thunderstorm Light Thunderstorms and Rain
11:30 AM 64.4 °F 64.4 °F 100% 29.99 in 10.0 mi SSE 5.8 mph - 0.05 in   Overcast
11:53 AM 66.0 °F 64.9 °F 96% 29.94 in 10.0 mi South 3.5 mph - 0.05 in   Mostly Cloudy
12:53 PM 66.9 °F 66.0 °F 97% 29.93 in 10.0 mi Variable 4.6 mph - 0.05 in Rain Light Rain
1:42 PM 62.6 °F 60.8 °F 94% 29.95 in 8.0 mi WNW 13.8 mph 20.7 mph 0.01 in Rain Light Rain
1:51 PM 59.0 °F 57.2 °F 94% 29.95 in 4.0 mi NW 11.5 mph 21.9 mph 0.01 in Rain Light Rain
1:53 PM 59.0 °F 57.9 °F 96% 29.93 in 4.0 mi NW 10.4 mph 19.6 mph 0.01 in Rain Light Rain
2:46 PM 51.8 °F 51.8 °F 100% 29.99 in 9.0 mi WNW 10.4 mph 26.5 mph 0.00 in Rain Light Rain
2:53 PM 52.0 °F 51.1 °F 97% 29.96 in 5.0 mi WNW 9.2 mph 19.6 mph 0.01 in Rain Light Rain
3:04 PM 51.8 °F 51.8 °F 100% 29.98 in 2.0 mi NW 9.2 mph - 0.07 in Rain Heavy Rain
3:18 PM 51.8 °F 51.8 °F 100% 29.98 in 10.0 mi WNW 6.9 mph - 0.08 in Rain Light Rain
3:25 PM 51.8 °F 51.8 °F 100% 29.99 in 9.0 mi WNW 11.5 mph 16.1 mph 0.08 in Rain Light Rain
3:33 PM 51.8 °F 51.8 °F 100% 29.99 in 2.5 mi WNW 11.5 mph 18.4 mph 0.13 in Rain , Thunderstorm Rain
3:42 PM 51.8 °F 50.0 °F 94% 29.98 in 0.8 mi NNW 10.4 mph 23.0 mph 0.29 in Rain , Thunderstorm Heavy Rain
3:50 PM 51.8 °F 50.0 °F 94% 30.00 in 0.8 mi WNW 10.4 mph - 0.51 in Rain , Thunderstorm Heavy Thunderstorms and Rain
3:53 PM 51.1 °F 50.0 °F 96% 29.97 in 0.8 mi NW 10.4 mph - 0.56 in Rain , Thunderstorm Heavy Thunderstorms and Rain
4:04 PM 51.8 °F 50.0 °F 94% 29.99 in 2.0 mi WNW 9.2 mph - 0.07 in Rain , Thunderstorm Thunderstorms and Rain
4:17 PM 51.8 °F 50.0 °F 94% 29.97 in 3.0 mi NW 9.2 mph - 0.12 in Rain Rain
4:24 PM 51.8 °F 50.0 °F 94% 30.01 in 6.0 mi WNW 10.4 mph - 0.12 in Rain Light Rain
4:38 PM 50.0 °F 48.2 °F 94% 29.99 in 2.0 mi NW 13.8 mph 21.9 mph 0.19 in Rain Heavy Rain
4:43 PM 50.0 °F 48.2 °F 94% 30.00 in 3.0 mi NW 12.7 mph 23.0 mph 0.20 in Rain Rain
4:53 PM 50.0 °F 48.9 °F 96% 29.97 in 6.0 mi NW 10.4 mph - 0.21 in Rain Light Rain
5:35 PM 50.0 °F 48.2 °F 94% 29.99 in 10.0 mi NNW 5.8 mph - 0.03 in Rain Light Rain
5:53 PM 50.0 °F 48.9 °F 96% 29.99 in 10.0 mi WNW 5.8 mph - 0.03 in Rain Light Rain
6:04 PM 50.0 °F 48.2 °F 94% 30.00 in 10.0 mi NW 6.9 mph - 0.00 in Rain Light Rain
6:53 PM 51.1 °F 50.0 °F 96% 29.99 in 10.0 mi WNW 10.4 mph - 0.00 in   Overcast
7:53 PM 50.0 °F 48.0 °F 93% 30.00 in 10.0 mi Variable 3.5 mph - N/A   Overcast
8:53 PM 51.1 °F 48.0 °F 89% 30.00 in 10.0 mi West 4.6 mph - 0.01 in   Clear
9:53 PM 51.1 °F 48.0 °F 89% 30.00 in 10.0 mi WNW 5.8 mph - N/A   Scattered Clouds
10:53 PM 51.1 °F 46.0 °F 83% 30.00 in 10.0 mi West 9.2 mph - N/A   Partly Cloudy
11:53 PM 52.0 °F 45.0 °F 77% 29.99 in 10.0 mi West 8.1 mph - N/A   Clear